Regional Weather Roundup
Issued by NWS

Home | Current Version | Previous Version | Text Only | Print | Product List | Glossary Off
Versions: 1 2 3 4 5 6 7 8 9 10 11 12 13 14 15 16 17 18 19 20 21 22 23 24 25 26 27 28 29 30 31 32 33 34 35 36 37 38 39 40 41 42 43 44 45 46 47 48 49 50

000
ASUS45 KABQ 242310
RWRNM
NEW MEXICO REGIONAL WEATHER ROUNDUP
NATIONAL WEATHER SERVICE ALBUQUERQUE NM
400 PM MST SAT FEB 24 2018

NOTE: "FAIR" MEANS FEW OR NO CLOUDS BELOW 12,000 FEET AGL WITH NO
       SIGNIFICANT WEATHER OR OBSTRUCTIONS TO VISION.

      THIS PRODUCT IS RELEASED AS TWO VERSIONS.  ONE VERSION NEAR
      THE TOP OF THE HOUR CONTAINING PRELIMINARY DATA FROM ALBUQUERQUE
      AND OTHER STATIONS.  A FINAL VERSION WITH ADDITIONAL DATA IS
      ISSUED ABOUT 10 MINUTES AFTER THE HOUR.

NMZ501-503-504-510>518-250000-
NORTHWEST PLATEAU/NORTHCENTRAL MOUNTAINS

CITY           SKY/WX    TMP DP  RH WIND       PRES   REMARKS
FARMINGTON     FAIR      36   5  27 W9G16     29.97F WCI  29
LOS ALAMOS     FAIR      35  -1  21 S16G25    29.93R WCI  26
SANTA FE       FAIR      37   3  24 SW22G31   29.93F WCI  26
TAOS           FAIR      33   2  26 SW20G28   29.91F WCI  21
ANGEL FIRE     FAIR      26  -1  32 W20G26    29.87S WCI  12

$$
NMZ402-403-502-505>509-250000-
WESTCENTRAL MOUNTAINS/SOUTHWEST MOUNTAINS

CITY           SKY/WX    TMP DP  RH WIND       PRES   REMARKS
GALLUP         FAIR      34  18  52 SW21      30.01F WCI  22
GRANTS         FAIR      38   4  24 W13G24    30.01F WCI  30
SILVER CITY    FAIR      48   8  20 W15G21    30.05S

$$
NMZ407-409-411-412-250000-
SOUTHERN DESERTS

CITY           SKY/WX    TMP DP  RH WIND       PRES   REMARKS
DEMING         FAIR      52  11  19 W21       30.04F
LAS CRUCES     FAIR      53   4  13 W6        30.05R
HOLLOMAN AFB   FAIR      51   5  15 N5        30.06S
ALAMOGORDO     FAIR      50   3  14 NW10      30.04S
T OR C         FAIR      53   4  13 S9        30.00S

$$
NMZ519>523-250000-
CENTRAL VALLEYS/CENTRAL HIGHLANDS

CITY           SKY/WX    TMP DP  RH WIND       PRES   REMARKS
ALBUQUERQUE    FAIR      44   2  17 W12       29.99F
DOUBLE EAGLE   SUNNY     43   5  21 W9        29.99F
MORIARTY ARPT  FAIR      41   3  20 W17G26    29.98R
CLINES CORNERS FAIR      35   1  23 NW24G37   29.95R WCI  23
BELEN          FAIR      46   6  19 W13G18    30.01S
SOCORRO        FAIR      48   4  16 E9        30.02R

$$
NMZ524>526-539-540-250000-
SOUTHCENTRAL MOUNTAINS

CITY           SKY/WX    TMP DP  RH WIND       PRES   REMARKS
RUIDOSO        FAIR      39  -4  16 W14G30    29.99R WCI  31

$$
NMZ527>531-250000-
NORTHEAST HIGHLANDS/NORTHEAST PLAINS

CITY           SKY/WX    TMP DP  RH WIND       PRES   REMARKS
LAS VEGAS      FAIR      40 -12  10 NW15G28   29.87R WCI  32
RATON          FAIR      42 -10  11 W15G24    29.79R
CLAYTON        FAIR      47 -15   7 W23G31    29.80R

$$
NMZ532>537-250000-
EASTCENTRAL PLAINS

CITY           SKY/WX    TMP DP  RH WIND       PRES   REMARKS
SANTA ROSA     FAIR      47   0  14 W25G33    29.89S
TUCUMCARI      FAIR      54  -4   9 W18G25    29.84R
CANNON AFB     FAIR      50  -3  11 W23       29.91S
CLOVIS AIRPORT FAIR      51  -1  11 W16G26    29.91R

$$
NMZ028-029-538-250000-
SOUTHEAST PLAINS

CITY           SKY/WX    TMP DP  RH WIND       PRES   REMARKS
ROSWELL        FAIR      59   4  11 NW13      29.93S
ARTESIA        FAIR      57   5  12 E5        29.95S
CARLSBAD       FAIR      59  12  15 VRB6      29.94S
HOBBS          SUNNY     57   3  11 NW13      29.96R


$$




USA.gov is the U.S. government's official web portal to all federal, state and local government web resources and services.